Temp
87 87 86 86 85 85 85 84 84 84 84 84 84 85 85 85 84 84 83 82 81 81 81 81 81 81 81 81 82 82 83 83 83 83 83 83 84 83 83 84 84 83 85 85 85 85 85 85 85 85 85 85 85 84 84 84 84 85 84 84 84 84 84
87 87 87 87 86 86 85 85 84 85 85 85 85 84 86 85 84 84 83 82 82 81 81 82 81 81 82 82 82 82 82 82 83 83 83 83 83 83 84 83 84 83 83 85 85 85 85 86 86 85 85 85 85 85 85 84 84 84 85 84 84 83 84
87 88 88 87 87 86 85 86 85 86 85 86 86 86 85 84 84 83 83 83 82 82 83 82 82 82 82 82 82 82 82 83 83 83 83 84 84 86 85 84 84 84 85 85 85 86 86 86 85 85 85 85 86 85 85 85 84 84 84 84 84 84 83
87 88 88 88 87 87 87 86 86 87 88 88 87 87 86 84 85 85 85 85 83 82 81 83 83 83 83 82 82 82 82 83 83 84 85 85 85 85 84 84 84 85 84 85 86 86 87 86 85 85 84 85 85 86 85 85 86 85 84 84 84 85 84
87 89 89 88 88 87 87 87 87 86 88 89 88 87 87 86 87 87 86 87 87 84 85 85 86 85 84 84 84 84 83 83 83 85 85 85 85 85 84 85 85 85 85 86 85 84 84 84 86 85 84 84 85 85 85 85 85 84 84 84 84 84 85
88 87 87 88 88 88 88 88 89 89 89 89 89 88 89 88 89 88 88 87 87 87 86 85 85 84 84 85 85 85 84 84 84 84 84 85 84 84 85 85 85 85 86 85 86 86 85 85 85 85 85 86 86 86 86 85 86 86 85 84 84 85 85
88 87 87 88 89 89 89 89 90 90 90 91 91 90 90 90 89 89 89 88 88 86 87 86 86 86 84 85 84 84 83 84 84 84 85 85 85 84 84 85 85 86 86 85 85 86 85 84 85 85 85 86 85 86 85 84 85 85 84 83 83 84 84
88 87 88 89 90 91 90 89 90 91 90 90 91 90 90 90 90 90 89 89 89 89 88 88 87 85 84 85 85 85 84 85 86 85 85 85 85 84 85 85 84 85 85 85 85 85 86 85 86 85 85 86 85 84 85 84 84 86 85 84 83 84 85
89 88 89 90 90 91 91 90 90 90 89 88 88 88 89 90 90 89 89 90 89 89 88 89 89 88 85 85 84 84 85 85 85 85 85 85 86 86 87 86 85 85 85 86 87 86 86 86 86 85 84 85 84 84 84 84 84 85 84 84 83 83 85
88 87 87 90 91 92 91 91 90 88 86 86 86 86 88 89 89 90 90 90 90 89 89 90 90 89 86 85 85 86 85 84 85 86 86 86 87 87 88 88 87 86 86 86 88 86 85 86 86 85 84 84 84 84 84 84 84 84 85 84 84 84 83
88 86 86 88 89 89 89 90 87 85 85 84 85 88 88 88 88 90 89 90 90 90 91 90 90 89 87 87 87 86 85 86 86 86 86 87 88 88 88 89 89 87 87 87 87 87 86 84 85 84 83 84 84 84 84 84 84 84 85 85 85 85 85
85 86 84 86 87 88 88 87 86 85 84 84 87 88 86 86 88 90 89 89 91 90 90 90 90 89 88 88 87 85 86 85 86 86 86 87 88 88 89 89 88 88 87 88 87 86 87 85 85 84 83 84 84 84 84 84 84 84 84 86 86 85 85
86 84 84 86 86 87 86 85 85 84 84 87 89 89 88 88 88 89 87 88 90 91 90 89 89 87 88 88 88 85 85 86 86 85 87 86 87 88 88 89 89 89 88 88 87 87 87 86 84 84 84 84 84 85 84 84 85 84 84 84 85 85 85
82 86 87 86 86 85 84 84 84 84 84 86 88 89 89 89 89 88 87 88 89 91 91 90 88 87 86 86 86 84 86 86 85 85 85 86 85 86 87 88 88 87 87 87 86 87 87 87 85 85 85 85 85 85 85 85 85 84 84 84 85 85 85
83 86 87 87 84 83 84 84 83 84 85 86 88 87 88 89 89 88 87 88 89 91 90 88 87 86 86 85 84 83 84 85 85 85 85 85 84 84 85 85 85 86 86 85 85 86 88 88 87 86 85 86 85 85 85 85 85 85 85 84 84 85 85
82 85 88 88 86 86 84 85 84 83 84 84 86 86 88 87 87 88 87 88 89 88 90 88 86 85 85 85 84 84 84 84 84 83 83 83 82 82 83 84 84 85 84 84 85 85 85 86 86 87 86 85 85 85 85 85 86 79 71 74 84 85 85
79 82 85 88 86 86 85 85 85 84 83 83 85 85 86 86 87 88 90 89 90 88 89 89 85 86 86 84 85 84 84 83 83 83 82 82 82 82 83 83 84 83 83 83 84 84 83 84 85 86 87 86 86 86 85 86 85 71 66 67 69 81 84
76 78 82 85 88 88 86 86 85 84 84 86 87 86 87 85 88 89 89 89 89 90 91 89 87 86 84 86 84 83 83 83 83 82 82 82 82 82 82 83 83 82 82 83 83 83 85 84 84 84 86 86 87 87 86 86 75 67 65 65 65 69 83
76 78 80 82 84 86 88 88 87 85 87 88 88 88 89 88 89 87 88 88 89 89 90 89 89 86 84 85 84 83 83 82 82 82 82 81 82 82 82 82 82 82 83 83 84 84 82 82 84 83 84 85 84 86 87 88 73 65 64 64 64 64 72
76 78 80 85 87 89 88 87 88 88 88 87 89 91 91 90 89 89 90 90 89 89 87 86 87 86 84 84 83 83 83 82 82 82 82 82 82 82 81 81 81 83 84 84 83 82 83 83 83 83 83 84 84 84 86 87 74 64 63 63 62 63 67
75 77 78 82 85 89 87 86 87 87 87 89 90 90 90 90 91 90 90 89 88 88 85 85 85 84 84 83 83 83 83 82 82 82 82 82 82 81 81 81 82 82 83 85 84 83 82 83 83 83 83 85 85 85 86 88 71 63 62 61 61 62 65
76 77 78 82 86 86 85 88 87 88 87 89 90 91 91 90 91 91 90 91 89 88 86 85 84 84 84 83 84 83 83 83 82 82 82 82 81 81 81 81 81 81 83 84 86 85 85 85 85 85 84 84 85 85 84 88 69 63 61 60 60 61 73
76 79 80 82 88 88 87 88 88 90 88 89 91 90 91 92 92 91 91 90 89 86 87 86 84 84 83 83 84 85 84 84 83 82 82 82 81 81 82 81 81 82 83 83 84 85 85 85 86 85 85 85 84 84 84 87 73 62 61 59 59 63 78
77 80 81 83 87 87 86 87 89 88 90 89 90 91 91 92 91 89 87 88 88 87 86 85 85 85 84 84 86 85 85 84 84 82 82 82 81 82 82 84 84 84 84 83 84 85 87 86 86 86 86 86 85 86 85 86 75 60 60 59 57 65 78
75 78 81 82 84 87 88 86 87 89 89 88 89 90 90 90 90 88 86 87 87 86 86 85 85 86 85 85 86 85 85 85 84 84 83 82 83 84 83 83 83 85 85 86 86 85 86 86 86 86 86 88 88 79 83 87 78 59 60 58 57 66 79
72 75 78 81 84 86 86 85 85 86 87 88 87 89 89 90 88 87 86 86 88 87 86 86 86 87 87 87 87 86 85 86 84 84 84 83 83 84 84 85 86 85 85 86 86 86 87 87 86 86 86 88 87 88 86 86 87 75 58 58 56 59 78
73 75 76 79 79 80 85 86 87 88 89 88 86 89 90 88 88 86 85 85 85 86 88 88 88 87 87 86 88 87 86 86 85 85 85 85 84 86 86 86 86 86 85 86 87 86 85 86 86 86 86 88 88 88 88 88 87 82 57 56 55 56 63
72 74 78 79 78 79 82 86 86 88 90 86 87 88 88 87 85 84 84 85 85 86 90 89 88 87 86 86 87 88 87 86 86 86 86 86 85 84 84 85 86 86 86 87 86 84 83 83 84 85 86 87 88 87 87 85 77 89 62 56 54 55 55
68 70 72 75 78 80 81 81 82 85 86 88 89 89 89 89 84 84 84 83 85 88 89 88 88 87 86 86 86 86 86 86 85 85 86 86 86 85 84 85 85 85 84 83 84 83 82 82 82 83 84 84 85 86 86 86 83 70 77 57 55 53 53
68 70 71 74 77 78 81 79 79 80 83 87 88 88 88 87 83 83 83 83 86 88 88 88 87 86 86 85 85 86 86 87 87 86 86 86 85 85 84 84 84 84 83 83 83 82 81 82 82 82 82 84 84 86 87 86 86 72 67 69 54 55 53
65 67 69 70 73 76 79 79 78 79 80 82 83 85 86 86 84 83 82 83 84 85 86 86 86 85 85 85 86 85 86 86 86 86 86 86 86 84 84 84 84 82 82 82 82 82 81 82 83 82 83 83 83 85 85 86 85 87 73 63 59 54 53
64 66 68 69 71 73 75 79 79 79 78 78 81 82 83 85 85 82 81 82 83 85 85 85 84 84 84 85 85 85 86 86 87 86 86 86 86 85 85 84 84 83 83 83 82 82 82 83 83 83 83 84 85 84 85 85 85 85 85 72 68 62 55
62 64 65 66 69 71 72 74 75 76 77 76 78 80 82 82 82 81 81 81 83 84 84 84 84 83 84 84 84 85 85 85 85 86 86 85 86 86 86 85 85 84 83 84 83 83 84 83 83 83 84 84 84 85 84 85 85 85 85 85 82 81 74
61 63 65 66 68 71 72 72 72 72 74 75 76 77 78 79 79 80 81 82 83 84 83 83 84 84 84 84 84 84 85 85 84 84 86 86 87 87 87 87 86 86 84 84 84 84 84 85 84 83 85 84 84 84 84 84 85 85 85 85 85 84 84
61 61 63 65 67 69 70 72 73 74 74 75 76 77 77 77 78 79 80 81 82 83 83 81 81 82 84 85 86 86 84 85 84 85 86 86 84 77 74 78 85 87 87 88 89 89 89 86 85 85 86 87 85 83 82 84 83 85 73 84 72 79 83
62 61 61 64 66 68 70 71 72 74 74 75 76 76 77 77 78 78 80 81 82 83 82 81 80 80 80 83 84 85 84 84 86 85 85 84 79 73 65 52 45 53 75 84 64 56 55 63 84 86 89 87 84 78 83 85 83 64 61 60 58 59 63
62 62 62 63 65 65 66 69 71 73 74 75 76 77 77 77 78 78 80 80 80 80 81 81 80 81 81 81 82 81 83 83 82 80 80 79 77 75 71 69 62 47 42 48 51 48 45 48 52 56 65 81 80 60 47 47 45 47 49 50 52 52 51
63 63 64 63 64 64 65 66 68 70 71 74 75 77 77 79 79 77 81 80 80 80 80 81 82 81 82 83 80 77 80 81 79 78 77 77 77 76 75 74 71 65 48 43 45 46 43 41 41 48 57 62 66 66 63 48 42 43 44 44 45 45 45
MSLP
1004.59 1005.07 1005.27 1005.47 1006.03 1006.31 1006.55 1006.79 1007.03 1007.51 1007.87 1008.27 1008.55 1008.95 1009.43 1009.71 1010.07 1010.47 1010.99 1011.43 1012.03 1012.63 1012.83 1013.15 1013.51 1013.83 1014.19 1014.43 1014.67 1014.83 1015.07 1015.39 1015.63 1016.03 1016.35 1016.55 1016.63 1016.91 1017.31 1017.47 1017.79 1017.99 1018.03 1018.31 1018.35 1018.51 1018.51 1018.59 1018.83 1019.03 1019.19 1019.39 1019.63 1019.83 1020.03 1020.19 1020.43 1020.55 1020.71 1020.87 1021.07 1021.23 1021.31
1004.55 1004.59 1004.67 1004.87 1005.35 1005.59 1005.75 1006.03 1006.47 1006.99 1007.43 1007.71 1008.11 1008.47 1008.75 1009.11 1009.43 1009.87 1010.27 1010.75 1011.35 1011.91 1012.35 1012.75 1013.19 1013.43 1013.71 1014.03 1014.23 1014.55 1014.87 1015.07 1015.31 1015.59 1015.87 1016.19 1016.35 1016.55 1016.71 1017.11 1017.35 1017.63 1017.75 1017.75 1017.95 1018.07 1018.23 1018.35 1018.51 1018.79 1019.03 1019.19 1019.39 1019.51 1019.71 1019.91 1020.11 1020.31 1020.51 1020.71 1020.99 1021.15 1021.19
1003.91 1003.91 1003.99 1004.27 1004.63 1004.83 1005.19 1005.55 1005.99 1006.23 1006.59 1007.03 1007.47 1007.91 1008.07 1008.27 1008.51 1009.03 1009.75 1010.39 1011.07 1011.55 1011.87 1012.31 1012.63 1012.99 1013.31 1013.63 1013.99 1014.27 1014.51 1014.79 1015.11 1015.39 1015.71 1015.83 1016.03 1016.19 1016.35 1016.67 1016.91 1017.15 1017.27 1017.43 1017.63 1017.87 1017.91 1018.19 1018.27 1018.47 1018.67 1018.95 1019.07 1019.31 1019.43 1019.63 1019.83 1020.03 1020.23 1020.43 1020.71 1020.91 1021.07
1003.27 1003.27 1003.19 1003.19 1003.35 1003.63 1004.07 1004.55 1004.99 1005.35 1005.71 1006.07 1006.39 1006.63 1007.27 1007.83 1007.99 1008.55 1009.03 1009.63 1010.51 1011.07 1011.59 1011.79 1012.15 1012.55 1012.83 1013.27 1013.63 1013.91 1014.23 1014.43 1014.59 1014.87 1015.11 1015.31 1015.63 1015.83 1016.19 1016.43 1016.67 1016.83 1017.19 1017.31 1017.27 1017.47 1017.63 1017.87 1018.19 1018.35 1018.51 1018.75 1018.95 1019.03 1019.19 1019.39 1019.51 1019.75 1019.95 1020.19 1020.47 1020.55 1020.75
1002.47 1002.35 1002.59 1003.07 1003.27 1003.59 1003.91 1004.23 1004.59 1004.95 1005.19 1005.27 1005.59 1006.23 1006.75 1007.23 1007.75 1008.23 1008.67 1009.07 1009.55 1010.19 1010.47 1010.99 1011.43 1011.91 1012.31 1012.67 1013.07 1013.39 1013.71 1013.99 1014.27 1014.43 1014.67 1014.87 1015.15 1015.51 1015.91 1016.15 1016.35 1016.59 1016.67 1016.79 1017.07 1017.35 1017.63 1017.83 1017.99 1018.19 1018.39 1018.55 1018.75 1018.87 1019.07 1019.19 1019.35 1019.51 1019.75 1019.95 1020.31 1020.39 1020.55
1002.11 1002.43 1002.51 1002.55 1002.67 1002.91 1003.15 1003.35 1003.63 1003.99 1004.43 1004.91 1005.35 1005.87 1006.23 1006.79 1007.27 1007.79 1008.07 1008.63 1009.11 1009.55 1010.11 1010.67 1011.07 1011.43 1011.95 1012.15 1012.51 1012.91 1013.19 1013.51 1013.75 1014.03 1014.35 1014.63 1014.95 1015.31 1015.55 1015.75 1015.95 1016.19 1016.43 1016.63 1016.71 1016.99 1017.27 1017.59 1017.75 1017.91 1018.15 1018.23 1018.43 1018.59 1018.71 1018.95 1019.07 1019.23 1019.51 1019.75 1019.99 1020.11 1020.27
1001.39 1001.59 1001.79 1001.79 1001.83 1002.15 1002.39 1002.67 1002.91 1003.23 1003.55 1003.99 1004.59 1005.27 1005.91 1006.43 1006.83 1007.23 1007.79 1008.31 1008.63 1009.23 1009.63 1010.11 1010.43 1010.87 1011.27 1011.59 1012.03 1012.47 1012.87 1013.15 1013.47 1013.79 1013.95 1014.31 1014.55 1014.91 1015.15 1015.35 1015.55 1015.75 1015.91 1016.15 1016.55 1016.63 1017.03 1017.31 1017.47 1017.59 1017.79 1017.95 1018.11 1018.27 1018.51 1018.71 1018.91 1018.99 1019.27 1019.55 1019.79 1019.87 1019.99
1000.59 1000.99 1000.95 1000.95 1001.07 1001.23 1001.55 1001.91 1002.19 1002.47 1002.99 1003.67 1004.43 1004.99 1005.39 1005.63 1006.23 1006.87 1007.19 1007.39 1007.95 1008.55 1009.07 1009.47 1009.99 1010.35 1010.75 1011.15 1011.47 1011.91 1012.31 1012.67 1012.91 1013.31 1013.63 1014.03 1014.27 1014.59 1014.83 1015.03 1015.27 1015.43 1015.71 1016.07 1016.15 1016.31 1016.63 1016.87 1017.03 1017.23 1017.43 1017.67 1017.87 1018.03 1018.15 1018.39 1018.63 1018.75 1018.99 1019.35 1019.59 1019.71 1019.67
999.75 999.91 1000.15 1000.23 1000.39 1000.55 1000.83 1001.19 1001.55 1002.07 1002.75 1003.23 1003.67 1004.03 1004.39 1005.11 1005.59 1005.91 1006.31 1006.83 1007.31 1007.83 1008.23 1008.51 1009.03 1009.55 1010.15 1010.71 1011.15 1011.51 1011.75 1012.15 1012.55 1012.91 1013.31 1013.67 1013.87 1014.15 1014.35 1014.59 1014.83 1015.03 1015.47 1015.67 1015.83 1015.95 1016.19 1016.43 1016.63 1016.91 1017.11 1017.35 1017.55 1017.75 1017.95 1018.11 1018.31 1018.43 1018.67 1018.95 1019.19 1019.43 1019.43
999.59 999.95 999.91 999.79 999.79 999.99 1000.31 1000.71 1001.31 1002.07 1002.83 1003.15 1003.47 1003.87 1004.31 1004.59 1004.91 1005.35 1005.83 1006.19 1006.63 1007.23 1007.63 1008.11 1008.55 1009.03 1009.63 1010.19 1010.67 1010.99 1011.43 1011.83 1012.07 1012.43 1012.79 1013.23 1013.35 1013.63 1013.79 1013.99 1014.35 1014.59 1015.03 1015.23 1015.39 1015.71 1015.79 1015.99 1016.27 1016.55 1016.87 1017.15 1017.31 1017.47 1017.63 1017.79 1017.95 1018.11 1018.27 1018.55 1018.75 1018.99 1019.15
999.31 999.43 999.59 999.79 999.95 999.95 1000.19 1000.79 1001.51 1002.03 1002.35 1002.79 1003.19 1003.39 1003.71 1004.11 1004.55 1004.87 1005.23 1005.59 1006.03 1006.43 1006.87 1007.43 1007.87 1008.51 1009.07 1009.63 1010.31 1010.71 1011.15 1011.47 1011.71 1012.11 1012.39 1012.63 1012.79 1013.07 1013.31 1013.55 1013.83 1014.11 1014.51 1014.79 1015.07 1015.19 1015.43 1015.75 1015.91 1016.27 1016.55 1016.83 1016.99 1017.15 1017.27 1017.43 1017.59 1017.87 1017.99 1018.07 1018.19 1018.43 1018.63
999.87 999.83 999.99 999.87 999.83 1000.07 1000.43 1000.47 1000.71 1001.31 1001.87 1002.31 1002.63 1002.95 1003.39 1003.71 1003.91 1004.23 1004.63 1004.91 1005.15 1005.91 1006.47 1006.91 1007.31 1007.87 1008.55 1009.11 1009.83 1010.31 1010.71 1011.03 1011.31 1011.63 1011.87 1012.11 1012.35 1012.59 1012.83 1013.07 1013.39 1013.71 1013.99 1014.27 1014.67 1014.87 1015.03 1015.39 1015.59 1015.83 1016.19 1016.35 1016.47 1016.63 1016.79 1016.99 1017.19 1017.43 1017.63 1017.71 1017.83 1018.07 1018.19
999.51 999.75 999.91 999.95 999.87 999.75 999.91 1000.47 1000.87 1001.03 1001.39 1001.63 1001.83 1002.15 1002.59 1003.11 1003.55 1003.87 1004.31 1004.67 1004.91 1005.23 1005.79 1006.31 1006.91 1007.51 1008.11 1008.63 1009.23 1009.83 1010.19 1010.47 1010.79 1010.99 1011.31 1011.63 1011.87 1012.11 1012.39 1012.67 1012.91 1013.23 1013.59 1013.75 1014.11 1014.51 1014.79 1014.91 1015.23 1015.39 1015.63 1015.87 1016.03 1016.23 1016.39 1016.63 1016.83 1017.07 1017.31 1017.43 1017.55 1017.75 1017.91
1000.15 999.75 999.39 999.51 999.95 1000.31 1000.55 1000.39 1000.43 1000.83 1001.15 1001.31 1001.55 1001.71 1002.03 1002.39 1002.75 1003.27 1003.75 1004.23 1004.51 1004.91 1005.47 1005.95 1006.55 1007.15 1007.71 1008.23 1008.87 1009.31 1009.59 1009.83 1010.15 1010.55 1010.83 1011.07 1011.47 1011.79 1011.99 1012.27 1012.59 1012.83 1013.07 1013.39 1013.83 1014.07 1014.27 1014.51 1014.83 1014.99 1015.19 1015.39 1015.59 1015.71 1015.91 1016.23 1016.51 1016.71 1016.91 1017.07 1017.23 1017.43 1017.59
1000.07 999.71 999.55 999.63 999.67 999.71 999.95 1000.19 1000.35 1000.59 1000.83 1000.91 1001.03 1001.47 1001.75 1002.11 1002.59 1003.07 1003.59 1003.91 1004.35 1004.67 1005.03 1005.35 1006.11 1006.79 1007.35 1007.91 1008.47 1008.79 1008.95 1009.31 1009.71 1010.07 1010.47 1010.83 1011.23 1011.59 1011.83 1012.07 1012.31 1012.55 1012.83 1013.11 1013.39 1013.55 1013.71 1013.95 1014.23 1014.67 1014.91 1014.99 1015.15 1015.39 1015.55 1015.83 1016.03 1016.15 1016.35 1016.67 1016.91 1016.99 1017.19
999.99 999.35 998.99 999.03 999.19 999.19 999.27 999.27 999.55 999.95 1000.23 1000.59 1000.83 1001.07 1001.39 1001.87 1002.31 1002.59 1003.03 1003.47 1003.75 1004.23 1004.51 1005.07 1005.75 1006.35 1006.95 1007.55 1007.91 1008.19 1008.59 1008.99 1009.39 1009.79 1010.15 1010.63 1010.99 1011.27 1011.55 1011.83 1012.11 1012.39 1012.67 1012.91 1013.07 1013.31 1013.51 1013.71 1013.95 1014.19 1014.47 1014.75 1014.91 1015.07 1015.23 1015.39 1015.39 1015.51 1015.83 1016.07 1016.31 1016.59 1016.75
1000.39 999.63 998.79 998.35 998.27 998.47 998.51 998.67 998.87 999.35 999.95 1000.35 1000.43 1000.55 1000.83 1001.11 1001.43 1001.83 1002.35 1002.87 1003.35 1003.83 1004.03 1004.55 1005.35 1005.91 1006.43 1006.95 1007.19 1007.67 1008.15 1008.67 1009.11 1009.43 1009.95 1010.19 1010.59 1010.95 1011.27 1011.59 1011.79 1012.11 1012.43 1012.67 1012.87 1013.11 1013.31 1013.55 1013.83 1013.91 1013.99 1014.27 1014.51 1014.79 1014.87 1014.87 1014.79 1015.07 1015.51 1015.83 1016.03 1016.23 1016.43
1000.79 999.95 998.99 998.23 997.71 997.59 997.99 998.31 998.67 999.11 999.39 999.55 999.75 1000.03 1000.39 1000.87 1001.19 1001.67 1002.11 1002.39 1002.83 1003.19 1003.55 1004.27 1004.83 1005.51 1006.03 1006.39 1006.91 1007.35 1007.79 1008.23 1008.75 1009.27 1009.63 1009.95 1010.35 1010.59 1010.87 1011.19 1011.55 1011.87 1012.11 1012.39 1012.71 1012.87 1013.03 1013.35 1013.55 1013.63 1013.75 1013.87 1014.07 1014.27 1014.31 1014.35 1014.31 1014.79 1015.15 1015.47 1015.75 1015.95 1016.07
1000.59 999.75 998.83 997.99 997.63 997.43 997.31 997.47 997.75 998.11 998.23 998.51 998.91 999.35 999.51 999.87 1000.63 1001.19 1001.31 1001.87 1002.11 1002.67 1003.35 1003.87 1004.39 1005.11 1005.83 1006.19 1006.59 1007.03 1007.47 1007.99 1008.51 1008.95 1009.35 1009.59 1009.87 1010.23 1010.59 1010.95 1011.31 1011.59 1011.87 1012.11 1012.19 1012.51 1012.91 1013.03 1013.23 1013.43 1013.47 1013.63 1013.87 1013.91 1013.83 1013.87 1013.87 1014.39 1014.75 1015.07 1015.39 1015.67 1015.87
1000.15 999.23 998.27 997.27 996.71 996.63 996.59 996.71 996.91 997.15 997.35 997.55 997.71 997.95 998.47 999.11 999.75 1000.27 1000.71 1001.35 1001.91 1002.51 1003.03 1003.71 1004.27 1004.87 1005.51 1005.91 1006.31 1006.71 1007.19 1007.67 1008.15 1008.59 1008.87 1009.15 1009.51 1009.87 1010.27 1010.63 1010.95 1011.07 1011.27 1011.55 1011.87 1012.27 1012.51 1012.67 1012.91 1013.03 1013.23 1013.31 1013.47 1013.55 1013.47 1013.43 1013.43 1013.95 1014.31 1014.67 1014.99 1015.27 1015.63
1000.07 999.23 998.55 997.31 996.59 996.07 996.07 996.35 996.67 996.95 997.39 997.63 997.99 998.51 999.03 999.71 1000.11 1000.63 1001.03 1001.31 1001.91 1002.39 1003.11 1003.59 1004.11 1004.71 1005.15 1005.67 1005.99 1006.43 1006.91 1007.35 1007.75 1008.19 1008.51 1008.79 1009.11 1009.51 1009.87 1010.19 1010.47 1010.79 1010.91 1011.11 1011.47 1011.83 1012.11 1012.23 1012.51 1012.59 1012.75 1012.87 1012.99 1013.19 1013.23 1012.95 1013.03 1013.51 1013.87 1014.23 1014.59 1014.91 1015.31
999.87 999.07 998.47 997.23 996.27 995.95 995.91 995.83 996.31 996.67 996.95 996.91 997.55 998.11 998.43 999.07 999.35 1000.03 1000.63 1000.87 1001.63 1002.23 1002.87 1003.39 1003.99 1004.43 1004.87 1005.43 1005.67 1005.99 1006.35 1006.79 1007.31 1007.71 1008.03 1008.43 1008.79 1009.19 1009.55 1009.79 1010.07 1010.39 1010.51 1010.71 1010.87 1011.03 1011.27 1011.55 1011.75 1012.07 1012.27 1012.31 1012.47 1012.71 1012.83 1012.43 1012.63 1013.03 1013.43 1013.75 1014.19 1014.63 1014.99
999.59 998.67 997.87 996.91 995.79 995.67 995.59 995.51 995.95 996.31 996.87 997.19 997.27 997.83 998.31 998.59 999.03 999.71 1000.39 1000.99 1001.47 1002.07 1002.67 1003.23 1003.91 1004.19 1004.47 1004.79 1005.03 1005.39 1005.79 1006.19 1006.71 1007.23 1007.59 1007.95 1008.43 1008.79 1009.07 1009.39 1009.67 1009.87 1009.95 1010.43 1010.59 1010.79 1010.95 1011.11 1011.23 1011.27 1011.55 1011.79 1011.99 1012.23 1012.23 1012.11 1012.15 1012.59 1012.99 1013.39 1013.83 1014.47 1014.47
999.27 998.27 997.39 996.63 995.55 995.39 995.51 995.59 995.87 996.23 996.71 997.31 997.63 997.75 998.03 998.43 998.95 999.55 1000.27 1000.87 1001.31 1001.91 1002.55 1003.03 1003.43 1003.59 1003.99 1004.35 1004.55 1004.87 1005.23 1005.63 1006.11 1006.67 1007.07 1007.47 1007.91 1008.23 1008.43 1008.63 1008.83 1009.19 1009.31 1009.87 1010.15 1010.35 1010.31 1010.39 1010.63 1010.63 1010.79 1011.07 1011.35 1011.39 1011.75 1011.67 1011.63 1012.11 1012.51 1012.95 1013.47 1013.75 1013.91
999.63 998.59 997.51 996.79 996.23 995.75 995.51 995.67 995.79 996.19 996.63 997.11 997.79 997.83 997.95 998.35 998.87 999.63 1000.35 1000.67 1001.07 1001.59 1002.23 1002.63 1002.87 1003.19 1003.55 1003.83 1004.03 1004.39 1004.71 1005.07 1005.51 1005.99 1006.43 1006.91 1007.23 1007.47 1007.87 1008.11 1008.31 1008.43 1008.71 1009.03 1009.35 1009.59 1009.63 1009.83 1010.07 1010.19 1010.23 1010.27 1010.47 1010.67 1011.11 1011.11 1011.19 1011.55 1011.95 1012.39 1012.87 1013.31 1013.31
999.95 998.99 997.95 997.03 996.39 995.83 995.55 995.63 996.07 996.51 996.87 997.23 997.43 997.39 997.83 998.27 998.91 999.55 1000.15 1000.51 1000.71 1001.39 1001.87 1002.03 1002.11 1002.23 1002.63 1003.15 1003.55 1003.91 1004.31 1004.59 1005.11 1005.47 1005.87 1006.35 1006.63 1006.87 1007.15 1007.35 1007.71 1008.03 1008.35 1008.63 1008.79 1009.11 1009.19 1009.35 1009.55 1009.83 1009.83 1009.75 1009.99 1010.15 1010.35 1010.67 1010.63 1010.95 1011.39 1011.83 1012.35 1012.71 1012.79
1000.03 999.27 998.51 997.83 997.43 996.63 996.27 995.99 995.87 996.07 996.19 996.51 996.87 997.23 997.67 998.23 998.95 999.71 1000.03 1000.31 1000.79 1001.11 1000.95 1001.03 1001.35 1001.83 1002.27 1002.71 1003.15 1003.59 1003.99 1004.27 1004.67 1005.11 1005.39 1005.59 1005.99 1006.23 1006.55 1006.83 1007.23 1007.55 1007.95 1008.27 1008.35 1008.59 1008.87 1009.03 1009.15 1009.35 1009.43 1009.31 1009.39 1009.55 1009.67 1009.79 1010.15 1010.27 1010.87 1011.35 1011.79 1012.19 1012.47
1000.31 999.59 998.63 998.03 997.71 997.35 996.95 996.47 996.43 996.23 996.23 996.51 996.79 997.07 997.51 998.07 998.95 999.43 999.83 1000.19 1000.47 1000.19 1000.03 1000.55 1001.03 1001.47 1002.07 1002.59 1002.95 1003.27 1003.63 1003.99 1004.23 1004.51 1004.87 1005.11 1005.51 1006.11 1006.43 1006.47 1006.67 1007.03 1007.43 1007.63 1007.95 1008.39 1008.67 1008.83 1008.95 1009.07 1009.11 1009.07 1009.03 1009.15 1009.31 1009.23 1009.59 1009.75 1010.35 1010.79 1011.23 1011.59 1011.91
1001.23 1000.59 999.95 999.11 998.47 997.91 997.59 997.47 997.23 996.99 996.83 996.75 996.75 996.99 997.39 997.95 998.87 999.31 999.59 999.95 999.75 999.55 999.87 1000.23 1000.71 1001.27 1001.83 1002.35 1002.79 1003.03 1003.31 1003.55 1003.91 1004.27 1004.43 1004.83 1005.11 1005.63 1006.11 1006.19 1006.47 1006.75 1006.99 1007.43 1007.79 1008.15 1008.51 1008.67 1008.83 1008.99 1009.07 1009.07 1008.99 1008.87 1008.95 1008.95 1009.07 1009.39 1009.75 1010.23 1010.63 1010.99 1011.43
1001.43 1000.75 1000.19 999.59 999.11 998.63 998.07 998.15 997.95 997.79 997.51 997.19 997.15 997.19 997.39 997.83 998.79 999.15 999.47 999.63 999.27 999.39 999.67 1000.07 1000.59 1001.11 1001.71 1002.15 1002.47 1002.71 1002.91 1003.15 1003.47 1003.75 1004.03 1004.39 1004.79 1005.19 1005.63 1005.95 1006.15 1006.43 1006.71 1007.03 1007.47 1007.91 1008.27 1008.43 1008.55 1008.83 1009.03 1009.11 1008.99 1008.71 1008.59 1008.55 1008.63 1008.91 1009.23 1009.63 1010.15 1010.47 1010.83
1002.35 1001.67 1001.03 1000.47 999.91 999.23 998.71 998.63 998.63 998.39 998.23 997.95 997.71 997.59 997.71 997.91 998.63 999.19 999.63 999.43 999.23 999.55 999.79 1000.15 1000.55 1001.11 1001.59 1001.87 1002.15 1002.39 1002.55 1002.79 1003.07 1003.39 1003.67 1003.95 1004.31 1004.95 1005.27 1005.63 1005.83 1006.39 1006.43 1006.79 1007.19 1007.55 1007.91 1008.03 1008.11 1008.47 1008.55 1008.67 1008.75 1008.51 1008.35 1008.23 1008.31 1008.39 1008.75 1009.15 1009.55 1009.99 1010.35
1002.55 1002.03 1001.39 1000.83 1000.31 999.87 999.47 998.99 998.87 998.87 999.03 998.83 998.47 998.31 998.23 998.31 998.59 999.51 999.71 999.55 999.55 999.55 999.79 1000.15 1000.67 1001.15 1001.43 1001.63 1001.91 1002.11 1002.27 1002.71 1002.91 1003.07 1003.27 1003.59 1003.79 1004.19 1004.43 1004.91 1005.35 1005.83 1006.07 1006.39 1006.75 1007.07 1007.43 1007.63 1007.75 1007.99 1008.15 1008.23 1008.15 1008.19 1008.07 1007.99 1008.07 1008.19 1008.27 1008.75 1009.15 1009.55 1009.91
1003.39 1002.87 1002.47 1001.83 1001.23 1000.55 1000.23 999.87 999.79 999.75 999.63 999.71 999.35 999.03 998.91 998.95 999.07 999.39 999.59 999.79 999.71 999.75 999.95 1000.35 1000.71 1001.11 1001.35 1001.59 1001.75 1001.91 1002.11 1002.51 1002.75 1002.91 1003.07 1003.31 1003.47 1003.67 1003.99 1004.35 1004.79 1005.23 1005.63 1005.91 1006.31 1006.63 1006.87 1007.15 1007.31 1007.59 1007.75 1007.83 1007.79 1007.67 1007.75 1007.83 1007.91 1007.99 1008.07 1008.15 1008.59 1008.95 1009.31
1004.19 1003.39 1002.71 1002.23 1001.63 1001.07 1000.67 1000.51 1000.51 1000.47 1000.31 1000.35 1000.11 999.83 999.75 999.75 999.87 999.79 999.71 999.75 999.71 999.79 1000.11 1000.51 1000.79 1001.03 1001.23 1001.35 1001.55 1001.83 1001.99 1002.27 1002.43 1002.71 1002.87 1002.99 1003.15 1003.51 1003.75 1003.95 1004.15 1004.59 1005.03 1005.31 1005.63 1006.07 1006.39 1006.51 1006.79 1007.03 1007.15 1007.35 1007.31 1007.39 1007.59 1007.79 1007.71 1007.71 1007.83 1007.87 1007.99 1008.23 1008.47
1004.71 1004.27 1003.51 1002.83 1002.23 1001.75 1001.55 1001.19 1000.99 1000.83 1000.75 1000.83 1000.55 1000.35 1000.31 1000.35 1000.27 1000.11 1000.07 1000.03 999.87 999.79 1000.19 1000.67 1000.95 1001.15 1001.15 1001.19 1001.23 1001.55 1001.79 1001.99 1002.27 1002.43 1002.63 1002.79 1003.03 1003.63 1004.15 1004.19 1003.83 1003.99 1004.15 1004.07 1004.19 1004.67 1005.23 1005.75 1006.03 1006.11 1006.19 1006.39 1006.75 1007.23 1007.59 1007.59 1007.67 1007.27 1006.87 1007.11 1007.35 1007.75 1008.15
1004.87 1004.55 1004.03 1003.35 1002.71 1002.31 1001.91 1001.67 1001.51 1001.31 1001.19 1001.11 1000.83 1000.71 1000.63 1000.55 1000.47 1000.39 1000.23 1000.27 1000.27 1000.07 1000.39 1000.79 1001.11 1001.43 1001.51 1001.31 1001.35 1001.39 1001.71 1001.83 1001.91 1002.11 1002.35 1002.71 1003.43 1004.19 1005.11 1005.95 1005.75 1005.35 1004.67 1004.43 1004.83 1004.99 1005.03 1005.11 1005.35 1005.35 1005.47 1005.95 1006.23 1006.59 1006.95 1007.11 1006.99 1006.79 1006.95 1007.27 1007.47 1007.63 1007.79
1005.39 1004.95 1004.55 1004.03 1003.47 1002.99 1002.79 1002.47 1002.15 1001.83 1001.75 1001.55 1001.23 1000.99 1000.87 1000.79 1000.75 1000.67 1000.51 1000.55 1000.67 1000.55 1000.59 1000.83 1001.19 1001.27 1001.23 1001.35 1001.43 1001.55 1001.67 1001.83 1002.15 1002.35 1002.59 1002.95 1003.43 1004.03 1004.67 1005.19 1005.63 1006.03 1006.07 1005.83 1005.75 1005.59 1005.63 1005.67 1005.59 1005.51 1005.35 1005.55 1006.35 1007.39 1007.67 1007.63 1007.51 1007.35 1007.43 1007.55 1007.71 1007.87 1008.03
1005.79 1005.39 1004.91 1004.43 1004.11 1003.79 1003.43 1003.19 1002.99 1002.79 1002.63 1002.15 1001.79 1001.59 1001.35 1001.27 1001.19 1001.35 1000.99 1000.75 1000.79 1000.91 1000.91 1000.95 1001.11 1001.19 1001.07 1001.07 1001.43 1001.83 1001.87 1001.91 1002.27 1002.59 1002.87 1003.19 1003.47 1003.83 1004.27 1004.71 1005.35 1005.99 1006.55 1006.59 1006.19 1006.19 1006.23 1006.27 1006.15 1005.99 1005.83 1005.75 1005.95 1006.67 1007.63 1007.99 1007.99 1007.87 1007.95 1008.07 1008.15 1008.23 1008.35
Wind_Speed
19 19 18 17 17 19 20 20 21 20 20 20 20 22 21 19 19 17 17 18 20 18 18 18 17 16 18 16 16 15 14 13 12 12 11 11 11 10 11 10 11 9 9 9 9 9 7 8 8 8 7 8 8 8 8 8 8 7 7 6 6 6 7
16 17 18 18 18 20 21 20 20 19 18 18 19 22 21 21 19 18 18 18 20 20 19 18 18 17 17 16 15 15 15 15 14 11 11 10 9 9 10 10 10 10 10 9 7 7 7 8 8 8 8 8 8 8 8 8 8 8 7 7 7 6 7
16 17 18 18 19 19 21 19 19 19 20 19 20 21 22 22 20 20 18 18 19 19 18 19 19 18 16 15 15 16 16 15 14 14 14 13 14 15 12 11 11 10 10 9 8 8 8 8 8 8 8 8 8 8 8 8 9 8 8 7 7 7 7
16 18 19 21 21 21 22 22 23 22 21 23 23 25 24 21 20 18 18 20 20 19 20 19 19 19 17 17 17 16 16 16 15 15 16 14 14 13 11 11 10 9 9 10 10 8 7 8 8 8 8 7 8 8 8 8 8 8 8 8 7 7 8
18 19 18 17 19 17 18 19 20 21 22 24 24 21 21 20 20 19 19 20 22 23 23 22 18 18 15 16 14 13 16 17 16 15 14 13 12 12 12 13 12 12 11 10 9 8 8 8 9 8 8 8 8 8 8 8 8 7 7 8 7 7 7
16 16 16 17 18 18 19 21 23 24 24 24 23 22 21 22 21 23 23 21 21 20 19 19 20 18 17 18 16 15 15 15 15 15 14 13 12 12 13 13 13 13 12 11 10 10 9 9 10 9 10 9 9 9 9 8 8 8 7 7 7 7 7
15 17 17 17 18 19 21 22 23 23 23 22 21 19 18 20 23 22 20 21 22 22 22 22 21 19 17 17 17 17 17 17 15 16 14 14 14 13 13 12 12 12 12 10 10 10 10 11 11 10 10 10 9 10 9 9 8 7 7 7 8 7 8
15 15 17 18 19 20 20 21 22 22 21 18 18 20 23 22 21 22 23 22 22 21 20 21 20 19 17 17 16 18 17 18 16 15 14 15 14 14 13 13 12 12 11 11 11 11 12 12 11 10 10 10 10 10 10 9 9 9 8 8 8 9 7
17 17 18 19 20 20 19 20 21 21 21 23 23 23 24 22 22 23 24 22 21 22 22 22 21 19 16 16 16 18 17 17 16 15 17 17 15 16 16 14 13 12 12 12 11 11 12 11 12 10 10 10 10 9 9 9 9 9 9 9 9 9 9
16 14 16 17 17 17 17 17 17 16 18 20 19 19 21 21 21 21 21 22 21 23 23 22 19 18 18 17 18 18 17 17 16 18 18 18 16 17 17 15 13 13 13 13 12 12 11 12 12 10 10 10 10 10 10 10 10 9 10 10 10 10 10
11 13 14 17 17 18 16 16 17 16 17 16 16 18 20 20 20 21 22 21 22 22 22 20 19 18 18 19 20 19 18 18 17 17 18 18 16 18 17 16 14 13 15 14 13 13 11 11 11 10 10 10 11 11 11 10 10 10 10 10 10 10 10
5 7 9 14 15 15 16 16 15 15 15 15 18 19 18 18 20 21 21 22 21 20 20 20 18 19 18 19 19 18 19 18 18 18 19 19 17 17 17 15 14 14 13 14 14 13 12 12 11 11 11 12 12 11 11 10 10 10 10 11 10 10 10
8 9 10 13 13 14 12 11 13 16 16 19 22 21 19 20 20 20 19 21 21 20 20 19 18 18 18 19 20 18 19 19 18 17 18 17 16 15 15 15 15 15 14 14 14 13 13 12 12 11 12 12 12 12 11 10 10 9 10 10 10 10 10
5 8 11 10 10 10 12 14 14 15 17 20 20 20 19 20 20 21 20 21 20 19 18 16 18 18 18 18 18 17 19 18 17 16 16 15 14 14 15 14 14 14 13 13 14 14 14 14 13 12 11 12 12 12 11 10 10 10 10 10 11 10 11
9 8 10 12 13 14 15 16 16 16 18 19 21 21 21 19 19 17 16 17 17 18 19 18 18 18 18 18 17 17 17 16 15 14 14 14 14 14 14 14 13 13 13 12 13 12 14 14 13 13 13 13 12 12 11 11 11 10 10 11 11 11 11
11 11 11 14 16 17 16 17 17 17 17 17 20 21 21 18 18 19 19 20 20 19 19 17 18 18 18 18 17 15 15 15 13 13 14 14 14 14 14 13 13 13 13 13 13 12 12 13 13 13 14 13 13 12 11 10 10 11 15 12 10 11 10
12 13 14 12 13 17 17 18 18 17 17 18 20 21 20 19 19 19 21 20 20 19 19 18 17 18 19 18 18 16 15 14 13 13 14 14 13 13 14 14 13 13 13 13 13 13 12 12 14 14 13 14 13 13 12 11 11 14 15 15 15 11 10
12 14 16 16 15 16 17 18 16 18 20 22 22 21 19 16 18 18 20 20 20 19 18 18 18 19 17 17 15 15 15 14 14 14 14 14 14 14 14 13 13 13 13 13 14 13 12 13 14 14 13 12 13 13 12 12 13 14 16 16 17 14 12
14 14 15 15 15 14 17 19 20 21 22 22 22 22 22 20 19 19 20 20 20 17 18 19 19 18 16 16 15 14 14 14 14 15 14 15 14 13 12 13 14 13 14 15 14 12 13 13 14 14 13 13 13 13 13 13 13 15 16 17 17 17 14
15 15 15 15 15 16 17 16 16 19 22 22 24 25 22 22 21 19 18 17 17 19 17 17 17 17 16 15 15 14 14 14 15 15 15 14 14 13 14 14 15 14 13 13 13 13 13 14 15 13 13 13 13 13 13 14 12 16 17 17 17 17 15
15 15 15 14 14 16 15 15 15 16 17 17 18 16 16 16 15 14 16 17 18 17 15 16 16 14 15 15 14 14 14 15 15 15 14 14 14 14 14 15 14 14 14 13 14 13 14 14 15 14 13 14 14 13 13 13 14 15 18 17 18 17 15
15 15 14 13 12 12 12 17 16 17 18 17 18 18 18 18 18 18 18 18 18 17 15 15 15 15 15 14 16 17 16 16 16 15 15 15 14 14 15 14 14 14 13 13 13 12 12 13 13 14 14 14 14 14 14 14 15 16 17 18 17 17 11
15 15 13 12 11 10 8 10 11 13 12 15 18 18 18 18 18 18 17 18 17 17 17 16 15 16 16 17 17 17 17 17 17 16 15 15 15 15 15 14 14 14 12 13 13 13 13 13 14 13 14 15 14 15 14 14 14 17 18 18 18 13 9
15 14 12 9 5 8 10 11 12 13 15 15 16 16 16 17 18 18 17 18 17 17 17 17 18 17 16 17 17 17 16 16 16 16 16 15 16 16 15 14 13 14 12 14 14 14 14 13 13 13 13 15 15 15 15 14 13 18 18 18 18 16 11
15 14 12 9 4 10 13 13 15 17 16 17 18 16 17 18 19 17 17 17 17 18 18 18 17 17 17 17 16 16 16 16 16 16 16 16 16 15 16 15 14 13 13 14 13 13 12 12 12 13 12 14 15 15 16 14 13 18 19 20 19 17 11
15 16 14 12 8 2 10 13 15 17 18 19 18 17 18 18 17 17 16 16 17 18 18 18 17 17 16 16 16 15 15 14 15 15 15 15 15 14 14 13 13 13 13 13 12 12 12 12 12 13 12 12 14 13 15 15 13 14 21 20 20 21 13
13 14 14 12 11 8 6 12 16 18 21 16 15 17 18 15 16 16 14 15 16 18 19 17 15 15 15 15 15 15 15 14 14 15 15 14 14 14 14 13 13 12 12 13 12 12 12 13 12 12 12 12 12 12 13 13 14 12 20 19 20 21 18
17 17 15 12 13 11 4 3 6 13 15 13 16 17 16 16 15 14 14 16 18 19 17 15 14 14 13 13 14 14 15 15 13 15 13 14 13 12 12 12 12 12 13 12 12 13 13 12 12 11 11 10 11 11 12 12 15 12 16 20 21 21 23
16 15 16 15 13 11 8 5 5 6 10 14 17 16 16 19 15 15 15 16 17 15 13 13 13 13 13 13 14 14 14 14 15 13 11 12 13 14 13 12 12 13 12 12 12 12 12 12 11 11 11 9 9 9 10 11 10 16 12 18 21 21 21
17 17 16 15 14 11 7 6 6 7 6 8 11 12 14 16 14 14 15 15 10 11 11 12 12 12 13 13 14 13 14 14 14 13 12 13 13 13 13 13 12 12 11 11 11 11 12 11 12 11 10 11 10 10 10 10 10 12 16 14 20 19 21
14 15 15 15 14 13 10 8 8 8 8 5 5 6 8 10 12 13 12 7 7 9 11 12 12 12 12 13 13 12 12 12 12 13 13 13 13 13 12 13 12 11 10 10 11 11 10 12 12 12 13 11 11 10 9 9 10 9 12 17 17 19 20
17 17 17 16 15 16 11 11 11 11 11 10 8 6 5 6 9 10 7 6 7 8 9 10 11 11 12 11 11 12 12 12 13 13 13 13 12 13 12 12 12 11 10 11 11 11 11 12 11 13 13 13 11 10 9 9 8 9 8 10 13 14 18
16 15 14 15 15 14 12 11 11 13 13 12 9 8 7 8 7 8 7 6 6 6 8 8 9 9 9 9 9 10 10 12 11 11 12 13 11 11 11 11 10 11 10 11 11 12 13 13 13 13 12 14 12 10 9 8 8 8 8 8 8 9 10
16 17 16 13 14 15 14 12 11 11 12 12 9 8 8 8 7 5 5 6 7 7 7 7 8 9 10 11 9 8 9 10 10 11 10 11 12 12 12 12 11 11 12 12 12 12 13 14 12 12 13 12 10 9 8 9 9 8 9 9 9 9 8
13 14 14 16 15 14 14 14 13 11 12 11 8 8 7 7 6 5 5 3 4 7 8 6 6 4 6 6 7 7 7 8 8 9 9 9 5 4 4 2 5 10 11 10 8 10 11 11 10 10 10 9 8 8 7 6 8 9 10 8 9 9 8
14 15 15 14 11 13 15 15 14 12 11 9 8 7 7 8 7 7 5 4 2 3 7 6 6 5 4 4 5 5 6 6 7 8 7 7 6 6 5 9 9 9 2 3 6 8 7 3 6 6 8 8 3 1 4 5 3 5 8 7 10 10 9
14 14 13 13 14 15 14 14 13 12 12 10 8 8 8 8 7 7 6 5 4 2 5 4 4 5 5 4 3 4 5 6 5 5 5 5 7 6 7 5 8 15 14 10 8 9 10 8 7 6 2 5 4 4 11 8 8 9 8 9 8 9 9
13 11 11 10 10 11 13 14 13 12 11 9 8 7 7 7 7 6 5 6 5 3 2 3 4 4 5 4 5 5 5 5 6 6 6 6 7 7 8 7 7 7 14 14 13 15 14 13 12 10 5 3 9 8 4 8 9 10 10 9 9 10 11
Wind_Direction
202 203 202 198 193 192 194 194 193 194 194 191 189 191 190 190 189 187 185 183 187 188 187 187 189 190 193 193 194 194 194 193 193 196 196 199 200 197 192 195 198 200 205 210 209 205 200 193 194 198 199 199 203 200 197 197 201 205 204 207 220 233 233
203 204 204 198 194 195 196 193 189 192 190 190 189 190 192 191 187 185 185 183 185 187 185 188 189 192 192 193 193 194 193 195 193 193 196 197 193 194 191 192 196 197 201 210 206 200 198 198 196 197 199 199 205 201 198 198 200 202 202 197 217 226 230
202 204 204 200 200 198 195 191 187 190 192 191 190 191 193 191 187 185 183 182 185 187 186 188 190 191 191 191 191 193 194 195 194 194 196 200 200 202 198 196 198 201 204 203 203 204 205 205 197 198 199 203 206 203 203 201 199 200 200 194 207 223 227
201 204 203 200 197 195 189 188 190 192 194 192 192 194 191 188 183 180 182 184 184 185 188 190 190 192 191 191 192 192 194 196 197 198 203 204 201 198 195 193 196 200 196 203 205 205 204 200 200 201 198 204 204 206 206 207 203 200 200 199 209 220 229
201 202 202 198 197 193 188 190 192 192 195 196 197 192 191 187 184 186 187 189 189 190 191 189 191 193 193 191 192 194 194 195 196 199 201 202 198 192 195 199 196 200 204 203 198 193 195 198 207 203 201 205 209 207 208 205 207 199 201 199 214 219 230
199 197 199 199 197 195 192 193 193 193 194 195 193 189 188 185 188 191 190 188 191 192 190 189 191 191 191 192 193 194 193 195 196 195 197 197 192 193 198 199 198 199 202 199 197 200 196 203 208 207 208 208 212 214 211 208 208 204 202 200 210 217 224
196 196 198 199 197 195 194 195 196 196 194 194 192 188 184 187 191 192 191 192 191 190 190 191 192 191 191 189 193 191 190 192 192 196 196 197 196 199 201 200 200 200 203 194 198 195 198 202 206 207 208 212 212 214 210 205 205 201 200 203 208 214 223
195 194 198 198 198 196 195 194 195 195 192 187 185 184 186 190 190 189 192 192 191 191 191 191 191 193 190 191 192 193 192 194 194 196 198 201 200 200 200 199 198 197 193 196 197 195 203 204 208 208 209 212 211 209 209 204 200 201 200 206 210 214 214
198 194 196 198 197 197 195 192 191 188 182 180 183 184 185 186 189 191 192 190 190 192 193 193 193 190 186 187 188 191 191 192 194 193 196 199 201 203 204 202 200 195 195 203 204 200 206 206 208 206 206 211 212 207 210 208 205 204 205 207 209 213 218
197 194 198 201 201 199 197 192 184 178 177 179 180 180 182 187 190 190 189 191 190 193 193 192 191 189 185 186 191 190 189 191 193 195 196 200 204 205 205 204 200 194 198 202 206 202 203 206 206 204 202 208 211 212 212 208 206 204 205 208 210 215 217
204 197 191 195 195 195 191 181 172 173 175 176 176 180 184 187 187 187 189 189 190 192 190 189 189 189 188 189 192 193 194 195 195 196 198 201 203 205 204 203 201 196 200 203 207 207 201 200 202 204 203 208 214 216 214 212 207 205 210 211 212 215 219
235 214 199 199 198 191 186 183 179 177 178 179 183 187 184 185 186 188 188 189 188 187 187 187 187 188 186 188 192 193 195 196 197 198 200 201 203 204 202 201 201 199 199 202 205 206 205 199 199 203 205 209 214 216 216 212 209 207 211 215 214 212 218
197 199 212 211 200 195 187 184 179 177 178 183 186 187 184 185 186 187 187 186 186 186 186 185 184 184 186 187 191 192 195 194 195 197 199 199 201 201 201 202 202 202 201 200 204 204 206 205 203 202 206 210 212 216 216 214 212 211 211 216 217 216 217
278 234 210 194 195 191 191 193 187 180 181 186 187 188 185 186 187 187 185 184 184 184 182 182 182 181 183 185 189 191 193 194 193 195 197 197 196 198 200 200 202 203 203 200 203 206 208 208 204 204 207 212 213 215 214 211 211 210 211 213 216 217 220
287 249 223 208 193 188 194 193 191 183 184 185 185 184 183 184 185 184 183 180 180 183 184 178 177 179 180 182 188 191 190 189 191 191 189 189 190 192 196 198 199 200 200 198 201 206 209 210 208 208 211 215 215 215 212 214 216 214 211 212 214 219 224
290 270 233 208 202 199 195 194 189 185 181 178 183 182 181 179 179 179 177 179 181 183 182 175 177 176 180 185 188 186 182 183 185 186 184 185 188 190 193 196 197 197 198 199 202 205 208 210 209 211 211 212 213 212 212 215 218 209 201 203 214 217 224
288 279 269 241 203 198 197 195 189 182 180 182 186 181 181 180 180 181 182 181 181 181 181 179 175 177 182 188 189 184 181 178 182 181 185 190 193 193 196 198 199 201 202 205 206 208 205 205 209 212 215 214 214 213 214 216 219 201 192 200 206 217 226
285 275 264 252 232 204 197 195 183 178 182 186 187 182 181 176 177 179 185 184 183 181 180 181 178 182 185 188 182 179 179 184 186 188 190 189 192 193 195 197 199 200 201 203 206 205 206 207 210 214 216 217 217 218 218 221 217 195 193 197 202 208 223
297 286 273 253 239 216 198 194 187 183 187 185 186 185 185 175 175 180 183 181 182 177 180 183 184 183 184 185 179 176 176 179 184 187 189 191 192 192 192 195 199 201 203 206 207 206 207 212 212 213 213 216 217 220 222 228 210 194 194 196 198 203 212
307 304 291 266 245 225 204 191 188 187 184 183 185 185 181 178 181 180 177 174 169 174 178 178 181 182 180 182 181 176 177 181 184 188 191 189 189 190 193 196 201 203 205 206 205 206 208 210 213 213 211 214 217 220 225 229 213 194 195 197 198 200 202
315 312 304 274 242 219 192 178 183 183 180 181 177 169 168 173 173 164 169 169 169 169 166 173 176 176 175 178 177 174 179 183 186 189 189 188 189 191 195 197 199 201 204 205 205 204 206 211 213 215 214 214 215 219 223 228 215 194 196 198 198 199 199
320 316 306 283 232 208 188 183 180 179 178 176 168 171 170 170 171 169 171 171 169 172 170 168 171 173 174 179 182 184 184 184 186 189 188 189 190 193 196 197 197 199 200 205 209 210 210 212 214 214 214 215 216 219 224 229 207 196 196 198 199 194 201
322 320 312 289 235 191 167 173 167 174 155 166 171 168 172 170 172 173 171 172 173 171 173 176 178 181 182 185 186 187 186 187 188 188 189 189 191 195 197 197 198 200 198 204 209 211 211 211 212 214 215 214 213 216 223 228 205 194 196 197 195 187 209
333 332 334 326 232 151 149 145 147 143 158 160 168 169 169 168 168 166 168 171 170 169 173 178 184 185 184 186 188 187 186 187 187 188 188 189 193 195 198 199 201 202 197 203 207 212 214 212 214 215 216 215 215 213 219 226 206 189 195 195 189 192 203
342 342 348 349 307 172 156 150 153 155 160 160 165 166 165 164 165 162 163 169 170 172 177 184 185 186 186 188 187 185 184 186 187 188 188 190 193 196 198 200 202 202 200 206 209 214 215 215 215 215 215 217 218 209 215 226 211 185 194 194 191 193 207
350 355 359 359 1 317 151 138 142 154 157 165 167 162 157 162 163 164 165 168 169 175 181 184 186 186 185 185 186 186 185 187 188 190 190 191 193 197 200 200 202 202 201 206 208 212 216 213 215 216 216 216 217 215 215 222 225 191 193 192 191 192 202
352 4 11 9 7 354 150 158 159 165 169 166 154 162 163 161 163 166 165 164 172 183 187 186 182 180 180 182 186 187 186 188 190 189 192 194 195 198 201 201 202 201 201 206 209 213 215 215 216 218 221 221 218 221 218 217 221 196 184 191 190 193 198
1 5 14 20 19 15 22 134 148 161 161 145 153 160 161 160 165 164 163 170 183 188 185 179 177 173 172 174 182 187 187 190 191 192 195 197 195 196 200 202 203 202 202 207 209 211 213 213 216 219 223 223 222 223 221 215 208 220 181 188 191 192 197
358 6 15 20 23 18 18 62 89 124 140 155 162 164 164 168 164 167 171 183 187 180 174 171 168 170 174 179 186 189 189 190 189 189 194 194 195 195 198 198 199 200 200 201 204 207 209 209 210 215 224 225 224 223 220 220 207 209 201 187 192 193 197
359 4 9 14 26 33 46 61 52 67 98 147 162 165 167 169 163 171 178 184 164 170 170 162 167 168 176 180 186 187 189 190 191 191 196 194 193 197 200 200 199 199 198 196 199 204 213 216 221 222 225 227 226 221 222 217 224 198 202 190 193 195 197
353 360 4 9 9 21 47 66 81 76 77 67 101 134 151 160 160 165 170 144 143 161 165 169 168 171 180 184 187 187 191 192 192 195 196 196 193 196 200 201 196 196 196 194 201 207 213 222 221 223 229 228 227 225 221 220 214 218 193 197 190 197 199
356 358 359 4 10 3 18 62 78 81 70 61 61 86 101 136 150 147 131 133 154 159 161 163 169 177 183 181 184 186 188 189 193 194 196 195 196 199 199 198 197 198 198 197 203 205 210 220 218 225 230 234 230 225 222 216 213 215 207 188 199 201 203
352 355 353 358 359 5 7 20 42 59 67 68 44 56 68 77 85 106 123 138 144 147 153 160 167 175 180 187 187 187 190 194 196 196 195 195 197 200 200 198 199 198 197 197 203 213 220 223 223 225 226 236 230 223 219 210 213 209 214 198 191 202 201
349 350 351 354 359 5 12 19 29 35 45 60 51 45 59 67 68 71 107 133 142 139 140 149 170 177 183 184 184 189 194 199 191 188 196 195 199 202 202 203 203 204 201 201 202 208 214 221 216 219 224 221 221 223 223 226 227 214 209 207 203 203 197
348 352 351 356 355 5 17 22 28 34 51 53 40 45 54 57 59 55 57 79 125 138 134 129 121 131 147 163 172 180 176 195 193 201 201 193 165 62 32 302 225 212 210 207 208 207 206 205 209 208 212 216 218 214 215 213 221 217 203 199 188 186 188
350 353 354 353 351 3 10 12 13 21 31 34 29 33 40 45 45 39 43 38 33 120 128 131 136 135 144 155 162 159 167 180 185 187 184 162 140 128 86 61 60 27 320 185 34 31 20 13 215 219 207 212 191 19 229 231 245 78 154 172 182 192 196
349 347 350 352 360 4 4 2 0 6 15 15 15 29 31 38 34 30 26 31 20 19 114 135 145 150 147 144 152 152 157 160 151 146 138 138 138 142 137 125 53 43 38 37 46 42 37 25 353 335 278 197 161 87 53 46 48 77 102 117 134 145 141
341 339 342 348 6 6 2 360 358 358 355 352 7 21 27 35 31 14 15 23 31 356 54 152 169 154 141 138 148 150 159 153 149 140 141 141 150 147 153 135 124 72 38 42 55 57 51 39 28 24 44 99 124 136 91 57 69 84 84 92 107 117 119